This demonstration page uses our WeatherBlox Daily Observations layout. Learn more.

Left ArrowRight Arrow

39.12711, -84.51439

Hourly Observations for January 26, 2022

Temp ( °F °C ) Dew Point ( °F °C ) Humidity (%) Winds ( mph kmh ) Pressure ( in mb ) Visibility ( mi km ) Precip ( " mm )
12:53 am 00:53 Clear 15 -9.4 2 -16.7 56 56 NNW 7 11 30.41 1030 10 16 0.00 0.00
1:53 am 01:53 Clear 13 -10.6 -2 -18.9 51 51 NNW 13 20 30.42 1030 10 16 0.00 0.00
2:53 am 02:53 Clear 11 -11.7 -1 -18.3 58 58 N 8 13 30.45 1031 10 16 0.00 0.00
3:53 am 03:53 Clear 10 -12.2 -1 -18.3 61 61 NW 5 7 30.47 1032 10 16 0.00 0.00
4:53 am 04:53 Clear 10 -12.2 -3 -19.4 55 55 Calm 30.48 1032 10 16 0.00 0.00
5:53 am 05:53 Clear 8 -13.3 -2 -18.9 63 63 NW 5 7 30.50 1033 10 16 0.00 0.00
6:53 am 06:53 Clear 7 -13.9 -2 -18.9 66 66 Calm 30.52 1034 10 16 0.00 0.00
7:53 am 07:53 Sunny 7 -13.9 -3 -19.4 63 63 N 3 6 30.55 1034 10 16 0.00 0.00
8:53 am 08:53 Sunny 9 -12.8 -2 -18.9 61 61 VRB 6 9 30.56 1035 10 16 0.00 0.00
9:53 am 09:53 Sunny 12 -11.1 0 -17.8 58 58 Calm 30.57 1035 10 16 0.00 0.00
10:53 am 10:53 Sunny 14 -10 1 -17.2 56 56 VRB 3 6 30.57 1035 10 16 0.00 0.00
11:53 am 11:53 Sunny 18 -7.8 2 -16.7 49 49 Calm 30.56 1035 10 16 0.00 0.00
12:53 pm 12:53 Sunny 19 -7.2 3 -16.1 49 49 VRB 5 7 30.53 1034 10 16 0.00 0.00
1:53 pm 13:53 Sunny 22 -5.6 1 -17.2 40 40 Calm 30.50 1033 10 16 0.00 0.00
2:53 pm 14:53 Sunny 23 -5 0 -17.8 36 36 NW 5 7 30.48 1032 10 16 0.00 0.00
3:53 pm 15:53 Sunny 24 -4.4 2 -16.7 38 38 W 5 7 30.47 1032 10 16 0.00 0.00
4:53 pm 16:53 Sunny 24 -4.4 1 -17.2 36 36 Calm 30.46 1032 10 16 0.00 0.00
5:53 pm 17:53 Clear 22 -5.6 2 -16.7 42 42 Calm 30.47 1032 10 16 0.00 0.00
6:53 pm 18:53 Clear 19 -7.2 8 -13.3 62 62 Calm 30.47 1032 10 16 0.00 0.00
7:53 pm 19:53 Clear 16 -8.9 8 -13.3 71 71 Calm 30.47 1032 10 16 0.00 0.00
8:53 pm 20:53 Clear 14 -10 8 -13.3 77 77 Calm 30.46 1032 10 16 0.00 0.00
9:53 pm 21:53 Clear 13 -10.6 8 -13.3 81 81 Calm 30.45 1031 10 16 0.00 0.00
10:53 pm 22:53 Clear 12 -11.1 9 -12.8 87 87 Calm 30.44 1031 10 16 0.00 0.00
11:53 pm 23:53 Clear 11 -11.7 8 -13.3 88 88 Calm 30.43 1030 10 16 0.00 0.00

Powered by AerisWeather